Theta_e
303 303 303 304 304 305 305 306 306 307 307 307 308 308 308 308 308 308 308 308 307 306 306 305 304 304 306 307 307 308 306 308 312 313 313 313 313 313 313 314 313 313 313
304 304 304 305 305 306 307 307 307 308 308 308 308 309 309 309 309 309 309 309 308 308 307 306 305 305 305 305 306 308 308 309 310 313 315 315 314 314 315 314 314 313 313
305 305 306 306 307 307 308 308 308 308 309 309 310 310 310 310 310 310 309 309 309 308 307 307 306 306 305 305 305 305 309 310 311 313 314 315 316 315 315 315 315 315 315
305 306 306 307 308 308 309 309 309 309 310 310 310 310 311 311 311 309 309 309 309 308 308 307 307 307 307 307 307 306 306 306 306 312 314 315 315 316 316 315 316 316 315
306 306 307 308 308 309 309 309 310 310 310 310 311 311 311 310 309 309 309 309 309 308 308 309 308 308 308 308 308 307 307 307 306 306 310 313 315 315 315 316 317 316 316
306 307 308 308 309 309 309 310 310 310 310 311 311 311 310 309 310 309 309 309 308 308 309 309 309 309 309 308 309 308 308 308 307 307 306 306 307 311 315 315 315 316 316
307 307 308 309 309 310 310 310 310 310 311 311 312 312 311 310 308 309 310 309 309 309 309 309 309 309 309 309 309 308 308 308 308 307 307 307 307 306 311 314 314 314 314
307 308 309 309 310 310 310 310 311 311 311 312 312 312 315 312 309 311 310 310 309 309 309 309 309 309 309 309 309 309 309 309 308 308 307 307 307 306 310 313 314 314 314
307 309 309 310 310 311 311 311 311 312 312 312 313 313 315 316 312 311 311 310 309 309 309 310 310 310 310 309 309 308 308 308 308 308 307 307 307 307 311 312 313 313 313
308 309 310 310 311 311 311 311 312 312 313 313 313 313 312 311 313 315 311 310 310 310 310 310 309 308 307 307 307 306 307 307 307 307 307 307 307 307 309 311 311 312 313
309 310 311 311 311 311 312 313 313 314 314 313 313 314 313 311 311 310 313 313 311 310 310 308 307 306 306 306 306 306 306 306 306 306 307 307 307 307 307 310 311 311 311
309 310 311 311 311 312 313 314 315 315 315 315 315 314 313 312 312 311 311 313 312 310 309 307 306 305 305 305 305 305 305 306 306 306 306 307 307 307 306 307 309 310 310
310 312 312 312 312 313 315 316 317 317 316 316 315 314 313 313 312 311 311 311 311 310 308 307 305 305 305 304 305 305 305 305 306 306 306 306 306 306 305 305 307 308 309
311 311 311 311 312 314 316 318 318 317 316 316 315 314 313 313 312 312 311 311 312 312 310 308 305 304 304 304 305 305 305 305 306 306 306 306 306 306 305 305 305 305 306
310 311 311 311 313 316 318 319 318 317 316 315 315 314 313 313 313 312 311 310 310 312 312 311 306 305 305 305 305 305 305 306 306 306 306 306 305 305 305 305 305 305 304
310 311 311 311 312 316 319 319 318 317 316 316 315 315 314 313 312 311 311 310 309 308 310 307 306 305 304 304 304 305 305 305 305 304 304 304 304 304 303 303 304 304 304
311 311 310 311 312 316 319 319 318 317 317 316 316 315 314 313 312 311 310 309 308 307 307 306 305 304 304 304 304 305 305 303 301 300 300 299 300 300 299 300 302 303 303
311 311 311 311 312 315 319 319 318 318 317 317 316 315 314 313 312 311 309 308 307 306 306 305 305 304 304 304 304 304 303 300 298 297 296 296 296 296 296 296 296 295 295
311 311 311 311 312 314 319 320 319 318 318 317 317 316 315 313 312 311 309 308 307 306 306 305 305 304 304 304 304 304 301 298 297 296 296 296 295 296 296 295 295 295 295
312 311 311 311 312 313 318 320 319 318 318 317 317 316 315 315 313 311 309 308 307 306 305 305 305 304 304 304 304 303 300 297 296 296 296 296 296 296 296 296 296 296 296
312 312 311 311 312 312 315 320 320 319 318 318 318 317 316 315 313 311 309 308 307 306 305 305 305 306 305 304 304 302 299 297 296 296 296 295 296 296 296 296 296 296 296
313 313 312 312 312 312 313 318 320 320 319 318 318 317 317 315 314 311 309 307 307 306 305 305 305 307 305 305 303 300 298 296 296 295 294 295 295 296 295 295 295 296 296
315 314 313 312 312 312 312 314 319 320 319 319 318 317 317 316 314 312 310 308 306 305 304 304 305 305 304 303 302 299 297 295 294 294 293 295 295 295 295 295 295 295 294
315 315 314 313 313 312 312 313 314 319 319 319 318 317 317 316 315 313 310 308 307 306 304 304 304 304 303 303 301 298 295 294 294 294 293 293 294 294 294 294 294 294 294
315 315 315 315 314 313 313 313 312 314 319 319 318 317 317 316 315 313 310 308 306 305 304 304 303 303 303 302 299 296 294 294 293 294 293 293 293 293 293 294 294 293 293
314 314 315 315 315 315 314 313 313 312 314 318 318 317 317 316 315 313 310 308 306 305 304 304 303 303 302 301 297 295 294 293 293 293 294 292 292 292 292 293 293 293 293
Wind_Speed
6 5 4 3 2 1 1 2 3 4 4 5 5 5 6 7 7 7 8 9 8 8 9 9 8 8 8 9 10 11 12 12 12 13 15 14 13 13 14 16 13 14 15
8 6 5 4 3 2 0 1 2 3 4 4 6 7 7 8 9 8 8 9 8 8 8 9 8 8 9 10 11 12 13 13 13 13 14 15 16 16 16 15 16 17 16
9 7 6 4 4 2 1 1 2 3 5 6 7 9 9 9 8 8 6 5 6 6 6 7 8 9 9 10 11 12 13 15 15 15 16 16 17 18 19 19 18 18 19
10 8 7 6 4 4 3 2 3 4 6 7 7 9 10 10 8 1 4 7 4 4 5 6 8 9 10 11 12 13 14 15 16 17 17 17 17 18 20 20 21 22 21
11 10 9 8 7 6 5 4 4 5 7 7 8 8 9 3 3 3 4 9 6 3 6 9 9 10 11 13 14 15 16 18 19 19 18 19 19 19 19 21 22 23 22
14 13 11 10 9 7 6 5 5 6 7 7 8 8 3 1 3 2 4 6 4 2 10 7 13 13 13 15 16 17 18 20 21 22 23 23 23 22 22 21 22 23 25
16 14 13 12 10 9 8 7 7 7 7 7 6 6 2 2 5 2 12 6 3 3 12 15 13 12 15 15 16 17 18 20 21 22 23 24 24 25 24 23 24 23 24
18 16 15 13 12 10 9 9 8 8 7 6 5 3 1 1 3 12 2 1 4 8 13 13 12 12 14 14 15 16 18 19 20 20 20 22 23 23 22 22 23 24 24
20 18 16 15 13 12 11 10 9 8 7 5 3 2 1 1 7 3 6 3 5 10 13 9 10 11 11 13 14 16 18 20 21 22 22 23 23 22 21 21 22 24 25
22 20 18 17 15 13 12 12 11 10 8 8 5 3 4 6 2 2 5 7 7 11 8 10 9 10 11 13 17 19 21 22 22 22 22 22 22 22 22 21 21 22 25
24 22 20 18 16 15 13 13 13 11 9 9 7 8 8 7 6 5 5 5 10 8 9 8 7 10 11 15 18 20 20 20 21 21 22 22 23 23 22 21 21 21 22
25 23 21 19 17 16 14 14 14 13 11 10 10 10 9 8 8 7 7 7 9 9 11 7 8 10 14 18 20 20 19 20 20 20 21 22 22 22 22 21 20 20 21
28 25 22 20 18 17 16 15 15 14 13 12 12 11 11 10 10 10 12 10 8 11 9 7 10 11 17 19 20 21 20 20 20 21 21 22 22 22 22 21 20 20 21
29 26 25 23 20 19 17 16 16 15 15 13 13 12 12 11 11 10 11 12 10 7 12 6 10 12 19 20 21 21 22 21 21 22 22 23 23 22 22 21 20 21 21
32 30 28 26 23 21 19 19 18 17 16 15 13 13 13 13 12 11 11 12 12 7 10 8 10 16 19 21 21 21 22 23 23 23 23 23 23 22 22 21 21 22 23
36 34 32 29 26 24 22 22 20 19 18 16 15 15 14 14 13 13 13 13 13 14 11 14 15 19 19 20 22 22 22 23 24 23 23 24 23 23 23 23 24 25 26
38 37 35 32 30 27 25 24 23 22 21 19 18 17 16 16 15 15 15 15 15 16 19 18 19 21 19 20 21 22 23 22 23 24 23 24 24 24 24 24 25 27 28
41 39 38 36 34 31 29 28 27 26 24 22 20 19 18 18 17 17 16 16 16 17 19 21 19 20 20 20 22 23 22 22 21 21 20 19 19 19 22 25 27 29 30
42 42 41 40 38 35 33 31 30 29 27 25 23 22 19 19 18 18 17 17 17 18 19 21 21 20 21 21 22 22 21 21 20 20 17 16 18 20 21 24 24 25 28
43 44 45 44 42 39 37 35 34 32 30 28 26 24 22 21 19 19 19 18 19 19 20 21 20 19 18 19 22 20 21 20 21 19 19 20 21 22 19 19 24 27 30
44 45 46 45 45 44 42 40 38 36 34 32 29 27 25 23 21 22 21 20 19 19 20 20 18 17 17 18 18 22 21 22 21 16 18 23 22 20 20 24 27 28 26
46 46 48 48 49 48 46 43 41 39 37 35 33 30 28 26 25 24 22 21 20 20 20 19 17 17 17 18 21 20 21 23 20 19 25 24 21 19 24 24 25 22 23
46 49 50 51 51 51 48 46 45 43 41 39 37 35 32 30 27 26 24 23 22 22 21 20 19 18 19 20 20 21 20 20 21 22 25 28 20 23 26 27 22 19 24
50 51 51 52 52 53 50 49 47 47 46 44 42 39 36 33 30 28 26 25 24 23 22 21 21 20 22 21 21 20 20 22 21 21 21 24 23 27 28 26 19 19 25
51 52 52 53 53 53 52 50 49 50 52 50 47 44 40 37 34 29 28 27 26 25 23 21 21 21 22 22 21 20 20 20 22 21 22 20 25 30 27 21 16 26 28
45 47 51 52 52 52 52 51 51 53 56 55 53 49 44 41 37 31 30 28 28 25 23 21 22 22 21 21 20 18 18 19 18 18 18 20 24 23 18 16 24 23 22
Wind_Direction
205 205 205 203 204 206 49 24 17 22 17 15 7 6 359 347 340 339 333 319 324 320 318 324 324 324 317 314 317 318 318 315 311 310 314 312 310 309 305 308 303 308 303
204 206 203 205 204 200 153 18 15 6 13 1 353 348 339 333 335 329 325 317 319 318 317 318 321 323 318 310 309 307 306 305 305 302 299 299 300 302 299 298 297 300 299
206 207 205 210 214 212 226 312 337 341 357 354 347 338 327 323 315 314 331 325 325 320 319 322 323 324 319 316 314 309 304 305 304 298 296 293 297 297 296 299 294 295 291
212 214 216 218 215 222 239 278 310 333 337 339 335 323 320 312 295 209 63 24 1 344 345 340 333 322 317 317 314 310 307 304 299 294 293 294 289 288 292 294 289 293 289
215 217 220 225 227 233 242 262 294 317 319 332 328 321 323 343 114 186 296 350 358 23 3 338 331 322 317 317 313 306 303 302 300 299 294 290 289 287 284 285 286 288 289
217 217 219 226 229 238 253 273 293 305 315 330 340 344 346 330 287 120 333 354 330 59 353 339 329 318 314 313 312 307 305 304 301 299 296 294 292 288 285 284 278 280 281
219 218 221 229 235 240 255 271 283 302 320 336 358 344 359 326 160 321 319 321 193 318 335 325 330 320 314 314 311 307 304 303 302 300 300 299 297 293 288 284 284 285 285
222 221 221 228 238 247 259 269 283 298 306 326 345 19 266 304 253 316 2 260 214 313 330 330 328 324 320 320 317 314 311 309 309 309 309 307 304 300 295 288 286 286 286
223 223 224 229 237 244 253 263 269 271 279 289 303 285 322 237 311 279 308 243 261 308 328 335 327 325 323 318 319 317 317 317 318 315 314 310 307 304 300 296 290 286 285
223 224 225 229 237 245 252 259 266 268 272 281 282 265 241 235 248 286 294 278 286 312 334 332 328 328 327 327 326 324 324 322 320 316 313 311 308 306 304 300 295 291 288
223 222 223 228 235 243 249 259 265 266 264 266 279 290 289 294 285 250 277 281 318 336 339 330 326 332 332 331 327 326 325 323 320 317 315 313 313 312 309 304 301 296 290
222 221 221 224 233 240 245 252 256 257 255 255 258 264 271 279 291 290 282 291 300 323 338 338 334 335 336 335 331 331 330 327 323 320 319 317 316 313 309 307 303 301 297
222 220 222 226 233 240 243 247 250 249 248 244 246 252 257 261 267 284 288 294 293 315 330 333 335 330 333 332 332 333 334 329 325 324 324 323 321 319 315 313 308 303 301
226 224 225 228 231 238 242 244 244 241 240 239 241 246 251 256 264 272 281 292 305 288 316 314 323 319 328 332 332 334 333 331 327 327 327 324 323 322 320 316 313 311 310
226 226 227 230 230 235 238 240 237 235 235 234 238 242 246 251 258 264 269 277 282 296 303 293 314 320 326 328 329 331 331 329 327 325 325 321 320 321 319 316 311 308 310
226 227 228 232 232 232 235 236 233 232 232 232 235 240 242 247 253 257 261 267 272 271 274 295 305 308 317 323 325 329 328 327 326 322 321 317 317 314 312 310 307 305 304
228 229 230 232 233 233 234 234 231 231 231 232 234 237 241 245 251 255 259 262 267 270 275 290 296 304 312 317 322 325 326 328 325 322 319 314 313 315 315 312 308 304 302
231 231 233 233 234 233 233 233 231 230 231 232 235 237 240 244 248 254 259 263 266 271 274 285 290 296 307 314 319 324 329 328 329 325 323 319 318 319 318 312 310 309 306
233 233 233 234 234 234 234 234 233 232 232 233 235 239 240 245 248 253 258 262 267 269 275 279 285 291 303 311 316 323 324 326 329 327 325 326 326 322 320 316 317 315 311
236 235 235 235 235 235 234 234 234 233 233 233 235 239 241 246 249 252 256 260 264 269 273 276 280 288 297 303 309 318 320 321 324 325 322 325 328 330 329 326 319 316 313
238 238 237 237 237 236 234 233 233 233 234 235 236 239 242 246 249 250 253 257 261 265 267 269 274 280 288 298 301 307 311 317 321 321 318 327 326 325 324 326 323 324 322
240 239 238 238 238 238 237 235 234 235 236 237 237 239 242 244 247 249 250 253 260 263 263 264 269 271 283 287 300 301 308 315 323 325 317 323 325 322 324 328 330 331 329
241 240 240 239 240 241 239 238 235 235 237 238 239 240 241 244 246 248 251 254 257 260 260 263 266 272 282 292 296 298 303 311 312 319 316 318 319 322 328 330 332 338 331
243 242 243 243 243 243 242 241 237 235 238 239 239 240 241 244 246 247 250 253 256 260 262 264 269 275 282 289 291 291 298 303 307 315 312 306 318 323 328 329 327 333 332
245 245 245 245 245 245 245 243 238 235 237 239 240 239 239 242 245 245 247 250 253 255 259 263 269 276 281 284 287 292 299 305 310 312 310 305 320 320 327 329 326 326 332
253 251 249 248 248 248 247 245 241 238 236 237 238 238 239 241 244 243 245 247 249 252 257 261 266 271 276 281 285 288 291 295 299 310 306 307 315 322 324 326 320 323 329